User: anonymous   Login
Location: Hurstbourne Priors
(51.2000°N, 1.3667°W)
Time: 01:28:20
(UTC+00:00)
Language:

Cosmos 1727 Rocket - Orbit

View from above orbital plane
View from above orbital plane
View from above satellite
View from above satellite

Ground track
Ground track

The orbit data is extracted from the following two-line orbital elements,

1 16511U 86008B   20192.50717719 +.00000033 +00000-0 +18676-4 0  9995
2 16511 082.9449 109.8281 0025149 038.2955 135.5069 13.75802483729923
Epoch (UTC): 10 July 2020 12:10:20
Eccentricity: 0.0025149
inclination: 82.9449°
perigee height: 960 km
apogee height: 997 km
right ascension of ascending node: 109.8281°
argument of perigee: 38.2955°
revolutions per day: 13.75802483
mean anomaly at epoch: 135.5069°
orbit number at epoch: 72992

The dashed part of the orbit path shows where the satellite is in the earth's shadow,  

DLR